Location: Long Island Community Building
(39.9491°N, 99.5338°W)
Time: 06:14:44
(UTC+00:00)

Cosmos 1602 - Pass Details

Date: 06 December 2019
Orbit: 515 x 534 km, 82.5° (Epoch: 19 January)

Event Time Altitude Azimuth Distance (km) Brightness Sun altitude
Rises 23:35:10 0° 354° (N) 2,657 7.1 -4.6°
Reaches altitude 10° 23:37:19 10° 356° (N) 1,768 6.2 -5.0°
Maximum altitude 23:41:12 77° 83° (E) 545 3.7 -5.7°
Drops below altitude 10° 23:45:04 10° 169° (S) 1,764 6.6 -6.3°
Sets 23:47:12 0° 171° (S) 2,651 7.5 -6.7°
